Location: S�deilles
(46.7500°N, 6.9329°E)
Time: 21:31:22
(UTC+00:00)

Cosmos 2219 Rocket - Pass Details

Date: 08 March 2021
Orbit: 826 x 848 km, 71.0° (Epoch: 22 April)

Event Time Altitude Azimuth Distance (km) Brightness Sun altitude
Rises 18:01:19 0° 184° (S) 3,352 5.4 -6.5°
Reaches altitude 10° 18:03:49 10° 178° (S) 2,425 4.6 -6.9°
Maximum altitude 18:09:03 43° 108° (ESE) 1,149 2.5 -7.8°
Drops below altitude 10° 18:14:19 10° 38° (NE) 2,452 4.3 -8.7°
Sets 18:16:52 0° 32° (NNE) 3,394 5.1 -9.1°
